Location: Bruderhein
(53.8035°N, 112.9265°W)
Time: 13:33:15
(UTC+00:00)

DIWATA 2B (PO-101) - Visible Passes

Search period start: 27 March 2023 00:00
Search period end: 06 April 2023 00:00
Orbit: 581 x 596 km, 98.0° (Epoch: 27 March)

Date Brightness Start Highest point End Pass type
(mag) Time Alt. Az. Time Alt. Az. Time Alt. Az.
27 Mar ? 09:12:04 32° NNE 09:12:04 32° NNE 09:14:41 10° N visible
27 Mar ? 10:48:33 16° NW 10:48:33 16° NW 10:49:49 10° NW visible
28 Mar ? 09:19:28 36° NNE 09:19:28 36° NNE 09:22:13 10° N visible
28 Mar ? 10:55:57 15° NW 10:55:57 15° NW 10:57:08 10° NW visible
29 Mar ? 07:50:21 11° ENE 07:50:59 11° NE 07:52:05 10° NE visible
29 Mar ? 09:26:51 41° N 09:26:51 41° N 09:29:43 10° N visible
29 Mar ? 11:03:20 14° WNW 11:03:20 14° WNW 11:04:25 10° NW visible
30 Mar ? 07:57:44 12° ENE 07:58:21 12° NE 08:00:04 10° NNE visible
30 Mar ? 09:34:14 45° N 09:34:14 45° N 09:37:13 10° N visible
30 Mar ? 11:10:44 13° WNW 11:10:44 13° WNW 11:11:38 10° NW visible
31 Mar ? 08:05:08 14° ENE 08:05:42 14° NE 08:07:52 10° NNE visible
31 Mar ? 09:41:37 49° N 09:41:37 49° N 09:44:41 10° NNW visible
31 Mar ? 11:18:06 12° WNW 11:18:06 12° WNW 11:18:45 10° NW visible
01 Apr ? 08:12:30 15° ENE 08:13:05 16° NE 08:15:35 10° NNE visible
01 Apr ? 09:49:00 51° NNW 09:49:00 51° NNW 09:52:10 10° NNW visible
01 Apr ? 11:25:29 10° WNW 11:25:29 10° WNW 11:25:43 10° WNW visible
02 Apr ? 08:19:52 17° ENE 08:20:27 18° ENE 08:23:15 10° NNE visible
02 Apr ? 09:56:22 52° NW 09:56:22 52° NW 09:59:37 10° NNW visible
03 Apr ? 08:27:15 19° ENE 08:27:50 20° ENE 08:30:52 10° N visible
03 Apr ? 10:03:44 50° NW 10:03:44 50° NW 10:07:03 10° NNW visible
04 Apr ? 08:34:36 22° ENE 08:35:13 23° ENE 08:38:28 10° N visible
04 Apr ? 10:11:06 46° WNW 10:11:06 46° WNW 10:14:28 10° NNW visible
05 Apr ? 08:41:58 25° ENE 08:42:35 26° ENE 08:46:01 10° N visible
05 Apr ? 10:18:27 42° WNW 10:18:27 42° WNW 10:21:52 10° NNW visible
